Time,TemperatureF,DewpointF,PressureIn,WindDirection,WindDirectionDegrees,WindSpeedMPH,WindSpeedGustMPH,Humidity,HourlyPrecipIn,Conditions,Clouds,dailyrainin,SoftwareType,DateUTC
2013-03-20 00:02:00,53.0,50.0,30.08,WSW,248,0.0,-999.0,90,-99.99,,,-99.99,,2013-03-20 07:02:00,
2013-03-20 00:11:00,53.0,50.0,30.08,WSW,248,0.0,-999.0,90,-99.99,,,-99.99,,2013-03-20 07:11:00,
2013-03-20 00:21:00,53.0,50.0,30.07,WSW,248,0.0,-999.0,90,-99.99,,,-99.99,,2013-03-20 07:21:00,
2013-03-20 00:32:00,53.0,50.0,30.06,WSW,248,0.0,-999.0,90,-99.99,,,-99.99,,2013-03-20 07:32:00,
2013-03-20 00:42:00,53.0,50.0,30.06,WSW,248,0.0,-999.0,90,-99.99,,,-99.99,,2013-03-20 07:42:00,
2013-03-20 00:52:00,53.0,50.0,30.07,WSW,248,0.0,-999.0,90,-99.99,,,-99.99,,2013-03-20 07:52:00,
2013-03-20 01:02:00,53.0,50.0,30.06,WSW,248,0.0,-999.0,90,-99.99,,,-99.99,,2013-03-20 08:02:00,
2013-03-20 01:12:00,53.0,50.0,30.06,WSW,248,0.0,-999.0,90,-99.99,,,-99.99,,2013-03-20 08:12:00,
2013-03-20 01:21:00,53.0,50.0,30.04,WSW,248,0.0,-999.0,90,-99.99,,,-99.99,,2013-03-20 08:21:00,
2013-03-20 01:32:00,54.0,51.0,30.06,South,190,1.0,-999.0,89,-99.99,,,-99.99,,2013-03-20 08:32:00,
2013-03-20 01:42:00,54.0,51.0,30.06,South,190,1.0,-999.0,89,-99.99,,,-99.99,,2013-03-20 08:42:00,
2013-03-20 01:51:00,54.0,51.0,30.05,South,190,0.0,-999.0,88,-99.99,,,-99.99,,2013-03-20 08:51:00,
2013-03-20 02:02:00,54.0,51.0,30.05,SSW,194,0.0,-999.0,89,-99.99,,,-99.99,,2013-03-20 09:02:00,
2013-03-20 02:12:00,54.0,51.0,30.05,SSW,194,0.0,-999.0,89,-99.99,,,-99.99,,2013-03-20 09:12:00,
2013-03-20 02:22:00,54.0,50.0,30.04,SSW,194,0.0,-999.0,86,-99.99,,,-99.99,,2013-03-20 09:22:00,
2013-03-20 02:32:00,54.0,50.0,30.05,SSW,194,0.0,-999.0,86,-99.99,,,-99.99,,2013-03-20 09:32:00,
2013-03-20 02:43:00,54.0,50.0,30.05,SSW,194,0.0,-999.0,86,-99.99,,,-99.99,,2013-03-20 09:43:00,
2013-03-20 02:52:00,54.0,50.0,30.04,SSW,194,0.0,-999.0,86,-99.99,,,-99.99,,2013-03-20 09:52:00,
2013-03-20 03:02:00,54.0,50.0,30.04,SSW,194,0.0,-999.0,86,-99.99,,,-99.99,,2013-03-20 10:02:00,
2013-03-20 03:12:00,54.0,50.0,30.04,SSW,194,0.0,-999.0,86,-99.99,,,-99.99,,2013-03-20 10:12:00,
2013-03-20 03:22:00,53.0,49.0,30.04,SSW,194,0.0,-999.0,86,-99.99,,,-99.99,,2013-03-20 10:22:00,
2013-03-20 03:32:00,53.0,49.0,30.04,SSW,194,0.0,-999.0,87,-99.99,,,-99.99,,2013-03-20 10:32:00,
2013-03-20 03:42:00,53.0,49.0,30.04,SSW,194,0.0,-999.0,87,-99.99,,,-99.99,,2013-03-20 10:42:00,
2013-03-20 03:52:00,53.0,49.0,30.03,SSW,194,0.0,-999.0,87,-99.99,,,-99.99,,2013-03-20 10:52:00,
2013-03-20 04:02:00,53.0,50.0,30.03,SSW,194,0.0,-999.0,88,-99.99,,,-99.99,,2013-03-20 11:02:00,
2013-03-20 04:12:00,53.0,50.0,30.03,SSW,194,0.0,-999.0,88,-99.99,,,-99.99,,2013-03-20 11:12:00,
2013-03-20 04:22:00,53.0,50.0,30.03,SSW,194,0.0,-999.0,88,-99.99,,,-99.99,,2013-03-20 11:22:00,
2013-03-20 04:32:00,52.0,49.0,30.03,SSW,194,0.0,-999.0,88,-99.99,,,-99.99,,2013-03-20 11:32:00,
2013-03-20 04:42:00,52.0,49.0,30.03,SSW,194,0.0,-999.0,88,-99.99,,,-99.99,,2013-03-20 11:42:00,
2013-03-20 04:51:00,52.0,49.0,30.02,SSW,194,0.0,-999.0,88,-99.99,,,-99.99,,2013-03-20 11:51:00,
2013-03-20 05:02:00,52.0,49.0,30.02,SSW,194,0.0,-999.0,89,-99.99,,,-99.99,,2013-03-20 12:02:00,
2013-03-20 05:12:00,52.0,49.0,30.02,SSW,194,0.0,-999.0,89,-99.99,,,-99.99,,2013-03-20 12:12:00,
2013-03-20 05:22:00,52.0,49.0,30.02,SSW,194,0.0,-999.0,89,-99.99,,,-99.99,,2013-03-20 12:22:00,
2013-03-20 05:32:00,52.0,49.0,30.01,SSW,194,0.0,-999.0,89,-99.99,,,-99.99,,2013-03-20 12:32:00,
2013-03-20 05:42:00,52.0,49.0,30.01,SSW,194,0.0,-999.0,89,-99.99,,,-99.99,,2013-03-20 12:42:00,
2013-03-20 05:52:00,52.0,49.0,30.01,SSW,194,0.0,-999.0,90,-99.99,,,-99.99,,2013-03-20 12:52:00,
2013-03-20 06:02:00,51.0,48.0,30.01,SSW,194,0.0,-999.0,89,-99.99,,,-99.99,,2013-03-20 13:02:00,
2013-03-20 06:12:00,51.0,48.0,30.01,SSW,194,0.0,-999.0,89,-99.99,,,-99.99,,2013-03-20 13:12:00,
2013-03-20 06:22:00,51.0,48.0,30.02,SSW,194,0.0,-999.0,90,-99.99,,,-99.99,,2013-03-20 13:22:00,
2013-03-20 06:32:00,51.0,48.0,30.02,SSW,194,0.0,-999.0,91,-99.99,,,-99.99,,2013-03-20 13:32:00,
2013-03-20 06:42:00,51.0,48.0,30.02,SSW,194,0.0,-999.0,91,-99.99,,,-99.99,,2013-03-20 13:42:00,
2013-03-20 06:52:00,50.0,47.0,30.03,SSW,194,0.0,-999.0,91,-99.99,,,-99.99,,2013-03-20 13:52:00,
2013-03-20 07:02:00,50.0,47.0,30.03,SSW,194,0.0,-999.0,91,-99.99,,,-99.99,,2013-03-20 14:02:00,
2013-03-20 07:12:00,50.0,47.0,30.03,SSW,194,0.0,-999.0,91,-99.99,,,-99.99,,2013-03-20 14:12:00,
2013-03-20 07:22:00,51.0,49.0,30.03,SSW,194,0.0,-999.0,92,-99.99,,,-99.99,,2013-03-20 14:22:00,
2013-03-20 07:32:00,51.0,49.0,30.04,SSW,194,0.0,-999.0,92,-99.99,,,-99.99,,2013-03-20 14:32:00,
2013-03-20 07:42:00,51.0,49.0,30.04,SSW,194,0.0,-999.0,92,-99.99,,,-99.99,,2013-03-20 14:42:00,
2013-03-20 07:51:00,51.0,49.0,30.04,SSW,194,0.0,-999.0,93,-99.99,,,-99.99,,2013-03-20 14:51:00,
2013-03-20 08:02:00,51.0,49.0,30.05,SSW,194,0.0,-999.0,93,-99.99,,,-99.99,,2013-03-20 15:02:00,
2013-03-20 08:12:00,51.0,49.0,30.04,SSW,194,0.0,-999.0,94,-99.99,,,-99.99,,2013-03-20 15:12:00,
2013-03-20 08:22:00,51.0,49.0,30.04,SSW,194,0.0,-999.0,94,-99.99,,,-99.99,,2013-03-20 15:22:00,
2013-03-20 08:33:00,50.0,48.0,30.05,SSW,194,0.0,-999.0,94,-99.99,,,-99.99,,2013-03-20 15:33:00,
2013-03-20 08:43:00,50.0,48.0,30.05,SSW,194,0.0,-999.0,94,-99.99,,,-99.99,,2013-03-20 15:43:00,
2013-03-20 08:52:00,51.0,49.0,30.05,SSW,194,0.0,-999.0,94,-99.99,,,-99.99,,2013-03-20 15:52:00,
2013-03-20 09:02:00,52.0,50.0,30.06,SSW,194,0.0,-999.0,94,-99.99,,,-99.99,,2013-03-20 16:02:00,
2013-03-20 09:12:00,52.0,50.0,30.06,SSW,194,0.0,-999.0,94,-99.99,,,-99.99,,2013-03-20 16:12:00,
2013-03-20 09:22:00,54.0,52.0,30.05,SSW,194,0.0,-999.0,94,-99.99,,,-99.99,,2013-03-20 16:22:00,
2013-03-20 09:32:00,55.0,53.0,30.06,South,183,0.0,-999.0,92,-99.99,,,-99.99,,2013-03-20 16:32:00,
2013-03-20 09:42:00,55.0,53.0,30.06,South,183,0.0,-999.0,92,-99.99,,,-99.99,,2013-03-20 16:42:00,
2013-03-20 09:52:00,55.0,53.0,30.06,South,183,0.0,-999.0,92,-99.99,,,-99.99,,2013-03-20 16:52:00,
2013-03-20 10:02:00,55.0,53.0,30.06,South,183,0.0,-999.0,92,-99.99,,,-99.99,,2013-03-20 17:02:00,
2013-03-20 11:34:00,63.0,55.0,30.07,SW,217,0.0,-999.0,74,-99.99,,,-99.99,,2013-03-20 18:34:00,
2013-03-20 11:43:00,63.0,55.0,30.07,SW,217,0.0,-999.0,74,-99.99,,,-99.99,,2013-03-20 18:43:00,
2013-03-20 11:52:00,63.0,55.0,30.07,SW,215,1.0,-999.0,74,-99.99,,,-99.99,,2013-03-20 18:52:00,
2013-03-20 12:02:00,63.0,55.0,30.06,SW,221,0.0,-999.0,74,-99.99,,,-99.99,,2013-03-20 19:02:00,
2013-03-20 12:11:00,63.0,55.0,30.06,SW,221,0.0,-999.0,74,-99.99,,,-99.99,,2013-03-20 19:11:00,
2013-03-20 12:22:00,63.0,55.0,30.06,SW,221,0.0,-999.0,74,-99.99,,,-99.99,,2013-03-20 19:22:00,
2013-03-20 12:32:00,65.0,55.0,30.05,WSW,250,0.0,-999.0,70,-99.99,,,-99.99,,2013-03-20 19:32:00,
2013-03-20 12:42:00,65.0,55.0,30.05,WSW,250,0.0,-999.0,70,-99.99,,,-99.99,,2013-03-20 19:42:00,
2013-03-20 12:53:00,66.0,55.0,30.05,WSW,250,0.0,-999.0,68,-99.99,,,-99.99,,2013-03-20 19:53:00,
2013-03-20 13:02:00,67.0,56.0,30.04,WSW,245,1.0,-999.0,67,-99.99,,,-99.99,,2013-03-20 20:02:00,
2013-03-20 13:12:00,67.0,56.0,30.04,WSW,245,1.0,-999.0,67,-99.99,,,-99.99,,2013-03-20 20:12:00,
2013-03-20 13:22:00,67.0,55.0,30.03,SW,236,0.0,-999.0,66,-99.99,,,-99.99,,2013-03-20 20:22:00,
2013-03-20 13:32:00,68.0,56.0,30.03,SW,233,0.0,-999.0,65,-99.99,,,-99.99,,2013-03-20 20:32:00,
2013-03-20 13:42:00,68.0,56.0,30.03,SW,233,0.0,-999.0,65,-99.99,,,-99.99,,2013-03-20 20:42:00,
2013-03-20 14:02:00,66.0,53.0,30.03,WSW,238,0.0,-999.0,64,-99.99,,,-99.99,,2013-03-20 21:02:00,
2013-03-20 14:12:00,66.0,53.0,30.03,WSW,238,0.0,-999.0,64,-99.99,,,-99.99,,2013-03-20 21:12:00,
2013-03-20 14:22:00,66.0,53.0,30.03,WSW,238,0.0,-999.0,64,-99.99,,,-99.99,,2013-03-20 21:22:00,
2013-03-20 14:33:00,63.0,52.0,30.03,WSW,239,1.0,-999.0,67,-99.99,,,-99.99,,2013-03-20 21:33:00,
2013-03-20 14:42:00,63.0,52.0,30.03,WSW,239,1.0,-999.0,67,-99.99,,,-99.99,,2013-03-20 21:42:00,
2013-03-20 14:52:00,63.0,52.0,30.02,SW,214,0.0,-999.0,68,-99.99,,,-99.99,,2013-03-20 21:52:00,
2013-03-20 15:02:00,63.0,52.0,30.02,SW,214,0.0,-999.0,68,-99.99,,,-99.99,,2013-03-20 22:02:00,
2013-03-20 15:12:00,63.0,52.0,30.02,SW,214,0.0,-999.0,68,-99.99,,,-99.99,,2013-03-20 22:12:00,
2013-03-20 15:22:00,64.0,52.0,30.01,SW,219,0.0,-999.0,65,-99.99,,,-99.99,,2013-03-20 22:22:00,
2013-03-20 15:32:00,65.0,52.0,30.00,SW,219,0.0,-999.0,63,-99.99,,,-99.99,,2013-03-20 22:32:00,
2013-03-20 15:42:00,65.0,52.0,30.00,SW,219,0.0,-999.0,63,-99.99,,,-99.99,,2013-03-20 22:42:00,
2013-03-20 15:52:00,66.0,52.0,30.00,SW,225,0.0,-999.0,61,-99.99,,,-99.99,,2013-03-20 22:52:00,
2013-03-20 16:02:00,67.0,53.0,29.99,NNW,329,0.0,-999.0,60,-99.99,,,-99.99,,2013-03-20 23:02:00,
2013-03-20 16:12:00,67.0,53.0,29.99,NNW,329,0.0,-999.0,60,-99.99,,,-99.99,,2013-03-20 23:12:00,
2013-03-20 16:22:00,67.0,53.0,29.99,SW,223,0.0,-999.0,61,-99.99,,,-99.99,,2013-03-20 23:22:00,
2013-03-20 16:32:00,68.0,54.0,29.98,SW,233,0.0,-999.0,60,-99.99,,,-99.99,,2013-03-20 23:32:00,
2013-03-20 16:42:00,68.0,54.0,29.98,SW,233,0.0,-999.0,60,-99.99,,,-99.99,,2013-03-20 23:42:00,
2013-03-20 16:52:00,67.0,54.0,29.98,SW,235,0.0,-999.0,62,-99.99,,,-99.99,,2013-03-20 23:52:00,
2013-03-20 17:02:00,67.0,53.0,29.98,SW,234,0.0,-999.0,60,-99.99,,,-99.99,,2013-03-21 00:02:00,
2013-03-20 17:12:00,67.0,53.0,29.98,SW,234,0.0,-999.0,60,-99.99,,,-99.99,,2013-03-21 00:12:00,
2013-03-20 17:22:00,66.0,51.0,29.97,SW,234,0.0,-999.0,59,-99.99,,,-99.99,,2013-03-21 00:22:00,
2013-03-20 17:32:00,65.0,51.0,29.98,SW,234,0.0,-999.0,61,-99.99,,,-99.99,,2013-03-21 00:32:00,
2013-03-20 17:42:00,65.0,51.0,29.98,SW,234,0.0,-999.0,61,-99.99,,,-99.99,,2013-03-21 00:42:00,
2013-03-20 17:52:00,65.0,51.0,29.98,SW,234,0.0,-999.0,61,-99.99,,,-99.99,,2013-03-21 00:52:00,
2013-03-20 18:02:00,63.0,50.0,29.97,SW,234,0.0,-999.0,62,-99.99,,,-99.99,,2013-03-21 01:02:00,
2013-03-20 18:12:00,63.0,50.0,29.97,SW,234,0.0,-999.0,62,-99.99,,,-99.99,,2013-03-21 01:12:00,
2013-03-20 18:22:00,63.0,50.0,29.97,SW,236,0.0,-999.0,62,-99.99,,,-99.99,,2013-03-21 01:22:00,
2013-03-20 18:32:00,62.0,49.0,29.97,SW,236,0.0,-999.0,63,-99.99,,,-99.99,,2013-03-21 01:32:00,
2013-03-20 18:42:00,62.0,49.0,29.97,SW,236,0.0,-999.0,63,-99.99,,,-99.99,,2013-03-21 01:42:00,
2013-03-20 18:52:00,61.0,49.0,29.97,SW,236,0.0,-999.0,65,-99.99,,,-99.99,,2013-03-21 01:52:00,
2013-03-20 19:02:00,60.0,49.0,29.97,SW,236,0.0,-999.0,66,-99.99,,,-99.99,,2013-03-21 02:02:00,
2013-03-20 19:12:00,60.0,49.0,29.97,SW,236,0.0,-999.0,66,-99.99,,,-99.99,,2013-03-21 02:12:00,
2013-03-20 19:22:00,59.0,48.0,29.97,SW,236,0.0,-999.0,68,-99.99,,,-99.99,,2013-03-21 02:22:00,
2013-03-20 19:32:00,59.0,49.0,29.96,SW,236,0.0,-999.0,70,-99.99,,,-99.99,,2013-03-21 02:32:00,
2013-03-20 19:42:00,59.0,49.0,29.96,SW,236,0.0,-999.0,70,-99.99,,,-99.99,,2013-03-21 02:42:00,
2013-03-20 19:51:00,59.0,49.0,29.96,SW,236,0.0,-999.0,70,-99.99,,,-99.99,,2013-03-21 02:51:00,
2013-03-20 20:02:00,57.0,48.0,29.95,SW,236,0.0,-999.0,73,-99.99,,,-99.99,,2013-03-21 03:02:00,
2013-03-20 20:12:00,57.0,48.0,29.95,SW,236,0.0,-999.0,73,-99.99,,,-99.99,,2013-03-21 03:12:00,
2013-03-20 20:21:00,57.0,49.0,29.96,SW,236,0.0,-999.0,75,-99.99,,,-99.99,,2013-03-21 03:21:00,
2013-03-20 20:32:00,56.0,49.0,29.96,SW,236,0.0,-999.0,76,-99.99,,,-99.99,,2013-03-21 03:32:00,
2013-03-20 20:43:00,56.0,49.0,29.96,SW,236,0.0,-999.0,76,-99.99,,,-99.99,,2013-03-21 03:43:00,
2013-03-20 20:52:00,56.0,49.0,29.96,SW,236,0.0,-999.0,77,-99.99,,,-99.99,,2013-03-21 03:52:00,
2013-03-20 21:02:00,55.0,48.0,29.96,SW,236,0.0,-999.0,78,-99.99,,,-99.99,,2013-03-21 04:02:00,
2013-03-20 21:12:00,55.0,48.0,29.96,SW,236,0.0,-999.0,78,-99.99,,,-99.99,,2013-03-21 04:12:00,
2013-03-20 21:22:00,55.0,49.0,29.96,SW,236,0.0,-999.0,79,-99.99,,,-99.99,,2013-03-21 04:22:00,
2013-03-20 21:32:00,55.0,49.0,29.96,SW,236,0.0,-999.0,79,-99.99,,,-99.99,,2013-03-21 04:32:00,
2013-03-20 21:43:00,55.0,49.0,29.96,SW,236,0.0,-999.0,79,-99.99,,,-99.99,,2013-03-21 04:43:00,
2013-03-20 21:52:00,54.0,48.0,29.96,SW,236,0.0,-999.0,80,-99.99,,,-99.99,,2013-03-21 04:52:00,
2013-03-20 22:02:00,54.0,48.0,29.96,SW,236,0.0,-999.0,80,-99.99,,,-99.99,,2013-03-21 05:02:00,
2013-03-20 22:12:00,54.0,48.0,29.96,SW,236,0.0,-999.0,80,-99.99,,,-99.99,,2013-03-21 05:12:00,
2013-03-20 22:21:00,54.0,48.0,29.96,SW,236,0.0,-999.0,81,-99.99,,,-99.99,,2013-03-21 05:21:00,
2013-03-20 22:32:00,54.0,48.0,29.95,SW,236,0.0,-999.0,81,-99.99,,,-99.99,,2013-03-21 05:32:00,
2013-03-20 22:43:00,54.0,48.0,29.95,SW,236,0.0,-999.0,81,-99.99,,,-99.99,,2013-03-21 05:43:00,
2013-03-20 22:51:00,54.0,48.0,29.95,SW,236,0.0,-999.0,81,-99.99,,,-99.99,,2013-03-21 05:51:00,
2013-03-20 23:02:00,54.0,48.0,29.95,SW,236,0.0,-999.0,80,-99.99,,,-99.99,,2013-03-21 06:02:00,
2013-03-20 23:12:00,54.0,48.0,29.95,SW,236,0.0,-999.0,80,-99.99,,,-99.99,,2013-03-21 06:12:00,
2013-03-20 23:22:00,54.0,48.0,29.94,SW,236,0.0,-999.0,80,-99.99,,,-99.99,,2013-03-21 06:22:00,
2013-03-20 23:32:00,54.0,48.0,29.93,SW,236,0.0,-999.0,80,-99.99,,,-99.99,,2013-03-21 06:32:00,
2013-03-20 23:42:00,54.0,48.0,29.93,SW,236,0.0,-999.0,80,-99.99,,,-99.99,,2013-03-21 06:42:00,
2013-03-20 23:51:00,54.0,48.0,29.93,SW,236,0.0,-999.0,80,-99.99,,,-99.99,,2013-03-21 06:51:00,